Other Public Products
Issued by NWS Charleston, SC

Home | Current Version | Previous Version | Text Only | Print | Product List | Glossary On
Versions: 1 2 3 4 5 6 7 8 9 10 11 12 13 14 15 16 17 18 19 20 21 22 23 24 25 26 27 28 29 30 31 32 33 34 35 36 37 38 39 40 41 42 43 44 45 46 47 48 49 50
759
FPUS82 KCHS 231712
OPUCHS

TEST...KCHS/KSAV Gateway Observations...TEST
National Weather Service Charleston SC
100 PM EDT SUN APR 23 2017

NOTE: "fair" indicates few or no clouds below 12,000 feet with no
significant weather and/or obstructions to visibility.

SCZ050-WAZ558-NCZ071-TXZ119-213-PAZ071-DCZ001-FLZ074-172-MI076-
NYZ176-178-MAZ016-IL014-TNZ027-NJZ106-GAZ044-MD014-231800-

...Gateway Observations for Charleston International...

CITY           SKY/WX    TMP DP  RH WIND       PRES   REMARKS
Chas Airport   MOSUNNY   81  68  64 S12G20    29.86F
Seattle        CLOUDY    52  44  74 SE7       29.89F
Charlotte      LGT RAIN  53  50  89 NE10      29.96F
Dallas DFW     SUNNY     68  41  37 N13       30.15F
Dallas Love    MOSUNNY   67  42  40 NW8G18    30.15F
Philladelphia  PTSUNNY   61  40  45 VRB3      30.14S
Wash National  CLOUDY    57  43  59 E5        30.15F
Baltimore      PTSUNNY   58  42  55 VRB5G22   30.14R
Miami          LGT RAIN  73  71  93 CALM      29.84F FOG
Detroit        MOSUNNY   64  34  32 VRB3      30.11F
Newark         PTSUNNY   60  34  37 VRB3      30.12S
Laguardia      MOSUNNY   61  36  39 NE3       30.12S
J F K          MOSUNNY   58  42  55 S14       30.13F
Boston Logan   SUNNY     53  40  61 SE12      30.08F
Ft. Lauderdale HVY RAIN  70  70 100 NE7       29.85S VSB 1/4
Chicago O`Hare SUNNY     67  27  22 CALM      30.10F
Chicago Midway SUNNY     67  30  25 N9        30.11F
Houston Bush   MOSUNNY   66  46  48 N12G22    30.09F
Houston Hobby  SUNNY     65  45  48 N12G23    30.09F
Nashville      RAIN      52  50  93 N12       29.86S FOG
Atlanta        LGT RAIN  65  64  97 SE10      29.80F FOG

$$

GAZ044-118-TXZ119-213-NCZ071-DCZ001-MDZ014-506-PAZ021-071-NJZ106-
NYZ176-178-MAZ106-OHZ011-021-055-MIZ076-KYZ091-ILZ014-INZ047-
MNZ060-ONZ431-231800-

...Gateway Observations for Savannah International...

CITY           SKY/WX    TMP DP  RH WIND       PRES   REMARKS
Savannah Arpt  PTSUNNY   87  61  41 S12       29.83F
Atlanta        LGT RAIN  65  64  97 SE10      29.80F FOG
Charlotte      LGT RAIN  53  50  89 NE10      29.96F
Dallas DFW     SUNNY     68  41  37 N13       30.15F
Houston Bush   MOSUNNY   66  46  48 N12G22    30.09F
Wash National  CLOUDY    57  43  59 E5        30.15F
Wash Dulles    PTSUNNY   57  41  55 VRB3      30.13F
Baltimore      PTSUNNY   58  42  55 VRB5G22   30.14R
Philadelphia   PTSUNNY   61  40  45 VRB3      30.14S
Newark         PTSUNNY   60  34  37 VRB3      30.12S
Laguardia      MOSUNNY   61  36  39 NE3       30.12S
J F K          MOSUNNY   58  42  55 S14       30.13F
Boston         SUNNY     53  40  61 SE12      30.08F
Pittsburg      CLOUDY    61  33  35 SE6       30.09F
Akron          MOSUNNY   61  33  35 E10G18    30.10S
Cleveland      MOSUNNY   64  33  31 VRB7      30.12S
Cincinnati     CLOUDY    59  37  44 NE15      30.00F
Columbus       CLOUDY    60  39  45 NE13G20   30.02F
Detroit        MOSUNNY   64  34  32 VRB3      30.11F
Chicago O`Hare SUNNY     67  27  22 CALM      30.10F
Minneapolis    MOSUNNY   60  42  51 VRB3      30.06F
Indianapolis   MOSUNNY   63  33  32 NE16      30.05F
Toronto Canada MOSUNNY   64  32  29 W9        30.06F

$$




USA.gov is the U.S. government's official web portal to all federal, state and local government web resources and services.